EI8HJ Weather Reports


time (UTC)temp
C
wind
direction
speed
KPH
gust
KPH
rain 1hr
cm
rain 24hr
cm
rain mn
cm
humidity
%
barometer
mb
20260504040015 10 138 4.8 12.9 0.00 0.00 0.00 81 1017.1
20260504035019 10 191 4.8 9.7 0.00 0.00 0.00 82 1017.0
20260504034022 10 103 6.4 11.3 0.00 0.00 0.00 81 1016.9
20260504033020 10 51 8.0 12.9 0.00 0.00 0.00 82 1016.8
20260504032020 10 144 4.8 12.9 0.00 0.00 0.00 83 1016.9
20260504031018 10 228 8.0 12.9 0.00 0.00 0.00 83 1016.8
20260504030016 10 191 8.0 11.3 0.00 0.00 0.00 83 1016.9
20260504024019 10 198 8.0 11.3 0.00 0.00 0.00 85 1016.6
20260504023019 10 178 6.4 11.3 0.00 0.00 0.00 85 1016.7
20260504022019 10 130 6.4 9.7 0.00 0.00 0.00 85 1016.7
20260504021019 10 212 6.4 12.9 0.00 0.00 0.00 86 1016.8
20260504020016 10 157 8.0 12.9 0.00 0.00 0.00 86 1016.7
20260504014019 10 211 8.0 12.9 0.00 0.00 0.00 87 1016.4
20260504013018 10 203 8.0 11.3 0.00 0.00 0.00 87 1016.4
20260504012019 10 244 6.4 9.7 0.00 0.00 0.00 87 1016.4
20260504011017 10 201 4.8 11.3 0.00 0.00 0.00 88 1016.4
20260504010014 10 227 6.4 11.3 0.00 0.00 0.00 87 1016.2
20260504005018 10 210 8.0 11.3 0.00 0.00 0.00 88 1016.1
20260504001020 10 194 8.0 11.3 0.00 0.00 0.00 89 1016.0
20260504000014 10 210 8.0 11.3 0.00 0.00 0.00 89 1015.8
20260503235020 10 189 4.8 12.9 0.00 0.00 0.00 89 1015.7
20260503234019 10 229 8.0 12.9 0.00 0.00 0.00 89 1015.7
20260503232018 10 209 6.4 11.3 0.00 0.00 0.00 90 1015.5
20260503230015 10 200 6.4 11.3 0.00 0.00 0.00 89 1015.6
20260503225019 10 188 4.8 11.3 0.00 0.00 0.00 89 1015.8
20260503224018 10 160 4.8 11.3 0.00 0.00 0.00 88 1015.3
20260503222018 10 338 6.4 12.9 0.00 0.00 0.00 88 1015.5
20260503221019 10 137 4.8 12.9 0.00 0.00 0.00 88 1015.5
20260503220015 10 175 4.8 11.3 0.00 0.00 0.00 89 1015.5
20260503215018 10 195 8.0 11.3 0.00 0.00 0.00 88 1015.3
20260503214021 10 205 8.0 12.9 0.00 0.00 0.00 89 1015.3
20260503213018 10 194 8.0 12.9 0.00 0.00 0.00 89 1015.4
20260503211017 10 182 8.0 12.9 0.00 0.00 0.00 88 1015.0
20260503210014 11 161 8.0 16.1 0.00 0.00 0.00 89 1015.1
20260503205018 11 105 8.0 16.1 0.00 0.00 0.00 89 1015.0
20260503204017 11 25 4.8 11.3 0.00 0.00 0.00 90 1015.0
20260503203018 11 215 4.8 12.9 0.00 0.00 0.00 91 1014.8
20260503202017 11 168 8.0 12.9 0.00 0.00 0.00 90 1014.4
20260503200014 11 216 6.4 12.9 0.00 0.00 0.00 90 1014.3
20260503195016 11 193 8.0 19.3 0.00 0.00 0.00 90 1014.2
20260503194017 11 152 8.0 19.3 0.00 0.00 0.00 89 1014.0
20260503193017 11 128 6.4 12.9 0.00 0.00 0.00 89 1013.9
20260503192016 11 164 8.0 12.9 0.00 0.00 0.00 89 1014.0
20260503191016 11 220 9.7 12.9 0.00 0.00 0.00 89 1013.7
20260503190013 11 226 9.7 16.1 0.00 0.00 0.00 89 1013.7
20260503184017 11 187 9.7 16.1 0.00 0.00 0.00 88 1013.4
20260503183017 11 209 8.0 12.9 0.00 0.00 0.00 87 1013.4
20260503182017 11 223 8.0 14.5 0.00 0.00 0.00 86 1013.4
20260503181017 12 203 9.7 12.9 0.00 0.00 0.00 85 1013.2
20260503180013 12 186 8.0 11.3 0.00 0.00 0.00 84 1013.2
20260503175018 13 224 8.0 11.3 0.00 0.00 0.00 81 1013.2
20260503174016 12 212 6.4 14.5 0.00 0.00 0.00 82 1013.1
20260503172018 12 215 8.0 14.5 0.00 0.00 0.00 82 1013.1
20260503171018 13 213 9.7 14.5 0.00 0.00 0.00 79 1012.9
20260503131017 12 234 4.8 9.7 0.00 0.00 0.00 84 1013.0
20260503072014 11 98 6.4 12.9 0.00 0.00 0.00 83 1012.7
20260503071014 11 44 8.0 12.9 0.00 0.00 0.00 82 1012.4
20260503055015 10 160 8.0 12.9 0.00 0.00 0.00 85 1011.9
20260503054016 10 223 6.4 11.3 0.00 0.00 0.00 86 1012.0
20260503052014 10 243 8.0 12.9 0.00 0.00 0.00 84 1011.8
20260503051018 10 191 8.0 12.9 0.00 0.00 0.00 85 1011.7
20260503045016 10 216 8.0 11.3 0.00 0.00 0.00 86 1011.6
20260503044015 10 209 6.4 9.7 0.00 0.00 0.00 85 1011.6
20260503043014 10 205 4.8 11.3 0.00 0.00 0.00 86 1011.8
20260503041015 10 198 4.8 9.7 0.00 0.00 0.00 86 1011.8